"Period start","avg(HW err(1)/warn(2) (#))","avg(Visibility (m))","avg(Weather code (#))","avg(Precip intensity (mm/h))","min(HW err(1)/warn(2) (#))","max(HW err(1)/warn(2) (#))","std(HW err(1)/warn(2) (#))","med(HW err(1)/warn(2) (#))","min(Visibility (m))","max(Visibility (m))","std(Visibility (m))","med(Visibility (m))","min(Weather code (#))","max(Weather code (#))","std(Weather code (#))","med(Weather code (#))","min(Precip intensity (mm/h))","max(Precip intensity (mm/h))","std(Precip intensity (mm/h))","med(Precip intensity (mm/h))"
2014-09-06 00:00:00,2,49611,0,0.00,2,2,0,2,48330,50000,617,50000,0,0,0,0,0.00,0.00,0.00,0.00
2014-09-06 00:10:00,2,46435,0,0.00,2,2,0,2,33478,50000,5429,49636,0,0,0,0,0.00,0.00,0.00,0.00
2014-09-06 00:20:00,2,47444,0,0.00,2,2,0,2,33387,50000,4925,50000,0,0,0,0,0.00,0.00,0.00,0.00
2014-09-06 00:30:00,2,44659,0,0.00,2,2,0,2,34444,50000,6005,47935,0,0,0,0,0.00,0.00,0.00,0.00
2014-09-06 00:40:00,2,39584,0,0.00,2,2,0,2,24026,50000,9450,38619,0,0,0,0,0.00,0.00,0.00,0.00
2014-09-06 00:50:00,2,38613,0,0.00,2,2,0,2,21729,50000,9791,39853,0,0,0,0,0.00,0.00,0.00,0.00
2014-09-06 01:00:00,2,38000,0,0.00,2,2,0,2,27960,50000,6391,38581,0,0,0,0,0.00,0.00,0.00,0.00
2014-09-06 01:10:00,2,44361,0,0.00,2,2,0,2,34001,50000,5155,45710,0,0,0,0,0.00,0.00,0.00,0.00
2014-09-06 01:20:00,2,41278,0,0.00,2,2,0,2,25267,50000,9880,47275,0,0,0,0,0.00,0.00,0.00,0.00
2014-09-06 01:30:00,2,43621,0,0.00,2,2,0,2,27944,50000,6547,45674,0,0,0,0,0.00,0.00,0.00,0.00
2014-09-06 01:40:00,1,45351,0,0.00,0,2,1,2,33047,50000,5204,46017,0,0,0,0,0.00,0.00,0.00,0.00
2014-09-06 01:50:00,2,44513,0,0.00,0,2,1,2,35227,50000,5441,44827,0,0,0,0,0.00,0.00,0.00,0.00
2014-09-06 02:00:00,2,38309,0,0.00,2,2,0,2,32156,46685,4591,38112,0,0,0,0,0.00,0.00,0.00,0.00
2014-09-06 02:10:00,2,44954,0,0.00,2,2,0,2,38061,50000,3867,44106,0,0,0,0,0.00,0.00,0.00,0.00
2014-09-06 02:20:00,2,45671,0,0.00,2,2,0,2,32847,50000,5523,48207,0,0,0,0,0.00,0.00,0.00,0.00
2014-09-06 02:30:00,2,46118,0,0.00,2,2,0,2,34190,50000,5652,49752,0,0,0,0,0.00,0.00,0.00,0.00
2014-09-06 02:40:00,2,45636,0,0.00,0,2,1,2,36232,50000,5489,48801,0,0,0,0,0.00,0.00,0.00,0.00
2014-09-06 02:50:00,2,43061,0,0.00,2,2,0,2,30223,50000,7383,45410,0,0,0,0,0.00,0.00,0.00,0.00
2014-09-06 03:00:00,2,45528,0,0.00,2,2,0,2,27404,50000,7519,49686,0,0,0,0,0.00,0.00,0.00,0.00
2014-09-06 03:10:00,2,43953,0,0.00,0,2,1,2,33791,50000,5143,44912,0,0,0,0,0.00,0.00,0.00,0.00
2014-09-06 03:20:00,1,45319,0,0.00,0,2,1,0,35678,50000,5249,47710,0,0,0,0,0.00,0.00,0.00,0.00
2014-09-06 03:30:00,1,44094,0,0.00,0,2,1,1,36953,50000,5074,45578,0,0,0,0,0.00,0.00,0.00,0.00
2014-09-06 03:40:00,0,49950,0,0.00,0,2,1,0,49497,50000,151,50000,0,0,0,0,0.00,0.00,0.00,0.00
2014-09-06 03:50:00,2,49923,0,0.00,2,2,0,2,49301,50000,208,50000,0,0,0,0,0.00,0.00,0.00,0.00
2014-09-06 04:00:00,2,49466,0,0.00,2,2,0,2,45572,50000,1326,50000,0,0,0,0,0.00,0.00,0.00,0.00
2014-09-06 04:10:00,2,49470,0,0.00,0,2,1,2,45762,50000,1276,50000,0,0,0,0,0.00,0.00,0.00,0.00
2014-09-06 04:20:00,2,48571,0,0.00,2,2,0,2,44855,50000,1724,49420,0,0,0,0,0.00,0.00,0.00,0.00
2014-09-06 04:30:00,2,47339,0,0.00,0,2,1,2,39023,50000,4178,50000,0,0,0,0,0.00,0.00,0.00,0.00
2014-09-06 04:40:00,1,48511,0,0.00,0,2,1,2,42649,50000,2463,50000,0,0,0,0,0.00,0.00,0.00,0.00
2014-09-06 04:50:00,2,44979,0,0.00,2,2,0,2,37149,50000,5009,45788,0,0,0,0,0.00,0.00,0.00,0.00
2014-09-06 05:00:00,0,48869,0,0.00,0,2,1,0,44431,50000,1846,50000,0,0,0,0,0.00,0.00,0.00,0.00
2014-09-06 05:10:00,1,47148,0,0.00,0,2,1,1,40525,50000,3592,48979,0,0,0,0,0.00,0.00,0.00,0.00
2014-09-06 05:20:00,0,49661,0,0.00,0,0,0,0,47108,50000,864,50000,0,0,0,0,0.00,0.00,0.00,0.00
2014-09-06 05:30:00,0,50000,0,0.00,0,0,0,0,50000,50000,0,50000,0,0,0,0,0.00,0.00,0.00,0.00
2014-09-06 05:40:00,1,49411,0,0.00,0,2,1,2,46001,50000,1229,50000,0,0,0,0,0.00,0.00,0.00,0.00
2014-09-06 05:50:00,2,49211,0,0.00,0,2,1,2,45731,50000,1584,50000,0,0,0,0,0.00,0.00,0.00,0.00
2014-09-06 06:00:00,1,50000,0,0.00,0,2,1,1,50000,50000,0,50000,0,0,0,0,0.00,0.00,0.00,0.00
2014-09-06 06:10:00,2,32470,24,1.89,2,2,0,2,11772,50000,14311,33278,0,61,30,0,0.00,8.35,3.02,0.00
2014-09-06 06:20:00,2,14761,61,12.86,2,2,0,2,3158,42764,11304,10394,61,63,1,61,0.50,50.90,15.29,8.57
2014-09-06 06:30:00,2,19928,55,0.80,2,2,0,2,8375,44697,11833,14581,52,61,4,52,0.05,2.15,0.69,0.60
2014-09-06 06:40:00,2,32342,10,0.72,2,2,0,2,14441,46980,11418,31408,0,52,21,0,0.00,4.05,1.45,0.00
2014-09-06 06:50:00,2,23515,55,4.53,2,2,0,2,7894,50000,14346,17444,0,62,18,61,0.00,14.85,4.58,4.10
2014-09-06 07:00:00,2,49518,6,0.01,2,2,0,2,47200,50000,877,50000,0,61,18,0,0.00,0.05,0.02,0.00
2014-09-06 07:10:00,2,50000,0,0.00,2,2,0,2,50000,50000,0,50000,0,0,0,0,0.00,0.00,0.00,0.00
2014-09-06 07:20:00,2,50000,0,0.00,2,2,0,2,50000,50000,0,50000,0,0,0,0,0.00,0.00,0.00,0.00
2014-09-06 07:30:00,2,49949,0,0.00,2,2,0,2,49486,50000,154,50000,0,0,0,0,0.00,0.00,0.00,0.00
2014-09-06 07:40:00,2,47789,23,0.06,2,2,0,2,37165,50000,4133,50000,0,61,29,0,0.00,0.55,0.16,0.00
2014-09-06 07:50:00,2,29846,36,5.92,2,2,0,2,12276,50000,15664,23088,0,62,29,56,0.00,38.15,11.50,0.25
2014-09-06 08:00:00,2,48149,0,0.00,2,2,0,2,42496,50000,2996,50000,0,0,0,0,0.00,0.00,0.00,0.00
2014-09-06 08:10:00,2,50000,0,0.00,2,2,0,2,50000,50000,0,50000,0,0,0,0,0.00,0.00,0.00,0.00
2014-09-06 08:20:00,2,50000,0,0.00,2,2,0,2,50000,50000,0,50000,0,0,0,0,0.00,0.00,0.00,0.00
2014-09-06 08:30:00,2,50000,0,0.00,2,2,0,2,50000,50000,0,50000,0,0,0,0,0.00,0.00,0.00,0.00
2014-09-06 08:40:00,2,50000,0,0.00,2,2,0,2,50000,50000,0,50000,0,0,0,0,0.00,0.00,0.00,0.00
2014-09-06 08:50:00,2,50000,0,0.00,2,2,0,2,50000,50000,0,50000,0,0,0,0,0.00,0.00,0.00,0.00
2014-09-06 09:00:00,2,50000,0,0.00,2,2,0,2,50000,50000,0,50000,0,0,0,0,0.00,0.00,0.00,0.00
2014-09-06 09:10:00,2,49351,0,0.00,2,2,0,2,45746,50000,1331,50000,0,0,0,0,0.00,0.00,0.00,0.00
2014-09-06 09:20:00,2,49869,0,0.00,2,2,0,2,48691,50000,393,50000,0,0,0,0,0.00,0.00,0.00,0.00
2014-09-06 09:30:00,2,49267,0,0.00,2,2,0,2,47739,50000,926,49974,0,0,0,0,0.00,0.00,0.00,0.00
2014-09-06 09:40:00,2,50000,0,0.00,2,2,0,2,50000,50000,0,50000,0,0,0,0,0.00,0.00,0.00,0.00
2014-09-06 09:50:00,2,50000,0,0.00,2,2,0,2,50000,50000,0,50000,0,0,0,0,0.00,0.00,0.00,0.00
2014-09-06 10:00:00,2,50000,0,0.00,2,2,0,2,50000,50000,0,50000,0,0,0,0,0.00,0.00,0.00,0.00
2014-09-06 10:10:00,2,44325,0,0.00,2,2,0,2,34647,50000,6257,47780,0,0,0,0,0.00,0.00,0.00,0.00
2014-09-06 10:20:00,2,49403,0,0.00,2,2,0,2,45343,50000,1409,50000,0,0,0,0,0.00,0.00,0.00,0.00
2014-09-06 10:30:00,2,50000,0,0.00,2,2,0,2,50000,50000,0,50000,0,0,0,0,0.00,0.00,0.00,0.00
2014-09-06 10:40:00,2,49352,0,0.00,2,2,0,2,44647,50000,1604,50000,0,0,0,0,0.00,0.00,0.00,0.00
2014-09-06 10:50:00,2,49605,0,0.00,2,2,0,2,46046,50000,1186,50000,0,0,0,0,0.00,0.00,0.00,0.00
2014-09-06 11:00:00,2,50000,0,0.00,2,2,0,2,50000,50000,0,50000,0,0,0,0,0.00,0.00,0.00,0.00
2014-09-06 11:10:00,2,50000,0,0.00,2,2,0,2,50000,50000,0,50000,0,0,0,0,0.00,0.00,0.00,0.00
2014-09-06 11:20:00,2,50000,0,0.00,2,2,0,2,50000,50000,0,50000,0,0,0,0,0.00,0.00,0.00,0.00
2014-09-06 11:30:00,2,50000,0,0.00,2,2,0,2,50000,50000,0,50000,0,0,0,0,0.00,0.00,0.00,0.00
2014-09-06 11:40:00,2,49875,0,0.00,2,2,0,2,48746,50000,376,50000,0,0,0,0,0.00,0.00,0.00,0.00
2014-09-06 11:50:00,2,49297,0,0.00,2,2,0,2,46124,50000,1354,50000,0,0,0,0,0.00,0.00,0.00,0.00
2014-09-06 12:00:00,2,50000,0,0.00,2,2,0,2,50000,50000,0,50000,0,0,0,0,0.00,0.00,0.00,0.00
2014-09-06 12:10:00,2,49295,0,0.00,2,2,0,2,45636,50000,1363,50000,0,0,0,0,0.00,0.00,0.00,0.00
2014-09-06 12:20:00,2,36026,0,0.00,2,2,0,2,27597,48877,6732,33840,0,0,0,0,0.00,0.00,0.00,0.00
2014-09-06 12:30:00,2,41097,0,0.00,2,2,0,2,30387,50000,6752,42072,0,0,0,0,0.00,0.00,0.00,0.00
2014-09-06 12:40:00,2,48634,0,0.00,2,2,0,2,44321,50000,2090,49920,0,0,0,0,0.00,0.00,0.00,0.00
2014-09-06 12:50:00,2,46090,0,0.00,2,2,0,2,40008,50000,3354,47410,0,0,0,0,0.00,0.00,0.00,0.00
2014-09-06 13:00:00,2,36168,8,0.02,2,2,0,2,30666,43082,3567,35656,0,40,16,0,0.00,0.10,0.03,0.00
2014-09-06 13:10:00,2,38764,48,0.14,2,2,0,2,24025,50000,10037,41088,41,51,5,51,0.00,0.35,0.11,0.10
2014-09-06 13:20:00,2,40672,51,0.24,2,2,0,2,30060,50000,6314,39978,51,51,0,51,0.00,0.75,0.20,0.25
2014-09-06 13:30:00,2,36031,50,0.18,2,2,0,2,22286,42785,7050,38564,41,51,3,51,0.00,0.50,0.14,0.17
2014-09-06 13:40:00,2,42281,8,0.00,2,2,0,2,35238,50000,5821,40302,0,41,16,0,0.00,0.00,0.00,0.00
2014-09-06 13:50:00,2,50000,0,0.00,2,2,0,2,50000,50000,0,50000,0,0,0,0,0.00,0.00,0.00,0.00
2014-09-06 14:00:00,2,50000,0,0.00,2,2,0,2,50000,50000,0,50000,0,0,0,0,0.00,0.00,0.00,0.00
2014-09-06 14:10:00,2,50000,0,0.00,2,2,0,2,50000,50000,0,50000,0,0,0,0,0.00,0.00,0.00,0.00
2014-09-06 14:20:00,2,50000,0,0.00,2,2,0,2,50000,50000,0,50000,0,0,0,0,0.00,0.00,0.00,0.00
2014-09-06 14:30:00,2,50000,0,0.00,2,2,0,2,50000,50000,0,50000,0,0,0,0,0.00,0.00,0.00,0.00
2014-09-06 14:40:00,2,50000,0,0.00,2,2,0,2,50000,50000,0,50000,0,0,0,0,0.00,0.00,0.00,0.00
2014-09-06 14:50:00,2,50000,0,0.00,2,2,0,2,50000,50000,0,50000,0,0,0,0,0.00,0.00,0.00,0.00
2014-09-06 15:00:00,2,44124,0,0.00,2,2,0,2,30751,50000,7509,49266,0,0,0,0,0.00,0.00,0.00,0.00
2014-09-06 15:10:00,2,43287,0,0.00,2,2,0,2,36201,47789,3202,43734,0,0,0,0,0.00,0.00,0.00,0.00
2014-09-06 15:20:00,2,47795,0,0.00,2,2,0,2,39530,50000,3527,49537,0,0,0,0,0.00,0.00,0.00,0.00
2014-09-06 15:30:00,2,49715,0,0.00,2,2,0,2,47817,50000,663,50000,0,0,0,0,0.00,0.00,0.00,0.00
2014-09-06 15:40:00,2,50000,0,0.00,2,2,0,2,50000,50000,0,50000,0,0,0,0,0.00,0.00,0.00,0.00
2014-09-06 15:50:00,2,50000,0,0.00,2,2,0,2,50000,50000,0,50000,0,0,0,0,0.00,0.00,0.00,0.00
2014-09-06 16:00:00,2,49784,0,0.00,2,2,0,2,48723,50000,441,50000,0,0,0,0,0.00,0.00,0.00,0.00
2014-09-06 16:10:00,2,49926,0,0.00,2,2,0,2,49259,50000,222,50000,0,0,0,0,0.00,0.00,0.00,0.00
2014-09-06 16:20:00,2,36650,16,0.03,2,2,0,2,19651,50000,11364,37305,0,41,20,0,0.00,0.20,0.06,0.00
2014-09-06 16:30:00,2,49004,0,0.00,2,2,0,2,44037,50000,1856,50000,0,0,0,0,0.00,0.00,0.00,0.00
2014-09-06 16:40:00,2,49649,0,0.00,2,2,0,2,46486,50000,1054,50000,0,0,0,0,0.00,0.00,0.00,0.00
2014-09-06 16:50:00,2,49718,0,0.00,2,2,0,2,48144,50000,574,50000,0,0,0,0,0.00,0.00,0.00,0.00
2014-09-06 17:00:00,2,49134,0,0.00,2,2,0,2,44262,50000,1727,50000,0,0,0,0,0.00,0.00,0.00,0.00
2014-09-06 17:10:00,2,50000,0,0.00,2,2,0,2,50000,50000,0,50000,0,0,0,0,0.00,0.00,0.00,0.00
2014-09-06 17:20:00,2,49243,0,0.00,2,2,0,2,44547,50000,1608,50000,0,0,0,0,0.00,0.00,0.00,0.00
2014-09-06 17:30:00,2,49773,0,0.00,2,2,0,2,48279,50000,524,50000,0,0,0,0,0.00,0.00,0.00,0.00
2014-09-06 17:40:00,2,49412,0,0.00,2,2,0,2,45239,50000,1426,50000,0,0,0,0,0.00,0.00,0.00,0.00
2014-09-06 17:50:00,2,49998,0,0.00,2,2,0,2,49983,50000,5,50000,0,0,0,0,0.00,0.00,0.00,0.00
2014-09-06 18:00:00,2,49129,0,0.00,2,2,0,2,47370,50000,1086,50000,0,0,0,0,0.00,0.00,0.00,0.00
2014-09-06 18:10:00,2,43037,0,0.00,2,2,0,2,26458,50000,8263,47826,0,0,0,0,0.00,0.00,0.00,0.00
2014-09-06 18:20:00,2,34533,0,0.00,2,2,0,2,25713,42081,4563,34179,0,0,0,0,0.00,0.00,0.00,0.00
2014-09-06 18:30:00,2,47572,0,0.00,2,2,0,2,37054,50000,3998,49702,0,0,0,0,0.00,0.00,0.00,0.00
2014-09-06 18:40:00,2,35454,18,0.16,2,2,0,2,23145,50000,11016,34907,0,51,23,0,0.00,0.55,0.24,0.00
2014-09-06 18:50:00,2,24740,52,0.61,2,2,0,2,17936,34048,4415,25076,51,52,0,52,0.25,1.40,0.40,0.45
2014-09-06 19:00:00,2,21259,60,2.33,2,2,0,2,14436,24966,3740,23034,52,61,3,61,1.45,3.15,0.65,2.42
2014-09-06 19:10:00,2,23468,61,1.97,2,2,0,2,14465,32977,6128,23152,61,61,0,61,0.80,3.35,0.84,1.73
2014-09-06 19:20:00,2,37266,56,0.74,2,2,0,2,28836,50000,6503,36512,52,61,4,56,0.30,1.35,0.28,0.73
2014-09-06 19:30:00,2,30313,52,0.50,2,2,0,2,21680,44532,6689,28512,51,52,0,52,0.20,1.05,0.27,0.42
2014-09-06 19:40:00,2,26064,48,0.15,2,2,0,2,14587,32891,6250,26844,41,51,5,51,0.10,0.25,0.05,0.15
2014-09-06 19:50:00,2,16516,52,0.43,2,2,0,2,13158,20449,1986,16690,51,52,0,52,0.15,0.90,0.22,0.38
2014-09-06 20:00:00,2,17339,52,0.57,2,2,0,2,15334,19884,1496,17062,52,52,0,52,0.25,0.85,0.17,0.55
2014-09-06 20:10:00,2,19578,52,0.98,2,2,0,2,15450,25611,3549,18170,52,52,0,52,0.70,1.40,0.26,0.88
2014-09-06 20:20:00,2,23929,52,1.03,2,2,0,2,20274,28507,2700,24308,52,52,0,52,0.60,1.80,0.38,0.93
2014-09-06 20:30:00,2,23662,52,1.01,2,2,0,2,18720,27075,2749,24501,52,52,0,52,0.65,1.75,0.31,0.93
2014-09-06 20:40:00,2,22533,52,0.75,2,2,0,2,18639,25870,2510,23122,52,52,0,52,0.40,1.05,0.23,0.83
2014-09-06 20:50:00,2,29984,50,0.29,2,2,0,2,21006,37192,5177,30324,41,61,5,51,0.05,0.60,0.19,0.28
2014-09-06 21:00:00,2,22218,53,0.40,2,2,0,2,15676,33424,4972,21180,52,61,3,52,0.05,0.70,0.18,0.40
2014-09-06 21:10:00,2,17491,54,0.32,2,2,0,2,13886,21193,2384,16798,51,61,4,52,0.10,0.70,0.18,0.38
2014-09-06 21:20:00,2,28177,41,0.04,2,2,0,2,21485,32505,3345,28418,41,41,0,41,0.00,0.10,0.04,0.03
2014-09-06 21:30:00,2,29992,43,0.06,2,2,0,2,18538,45280,7839,30544,41,51,4,41,0.00,0.25,0.08,0.03
2014-09-06 21:40:00,2,15224,51,0.15,2,2,0,2,9732,30769,5614,13862,51,51,0,51,0.05,0.25,0.06,0.15
2014-09-06 21:50:00,2,47279,10,0.00,2,2,0,2,35835,50000,5115,50000,0,51,20,0,0.00,0.00,0.00,0.00
2014-09-06 22:00:00,2,50000,0,0.00,2,2,0,2,50000,50000,0,50000,0,0,0,0,0.00,0.00,0.00,0.00
2014-09-06 22:10:00,2,50000,0,0.00,2,2,0,2,50000,50000,0,50000,0,0,0,0,0.00,0.00,0.00,0.00
2014-09-06 22:20:00,2,49301,0,0.00,2,2,0,2,43014,50000,2096,50000,0,0,0,0,0.00,0.00,0.00,0.00
2014-09-06 22:30:00,2,49782,0,0.00,2,2,0,2,47822,50000,653,50000,0,0,0,0,0.00,0.00,0.00,0.00
2014-09-06 22:40:00,2,50000,0,0.00,2,2,0,2,50000,50000,0,50000,0,0,0,0,0.00,0.00,0.00,0.00
2014-09-06 22:50:00,2,49993,0,0.00,2,2,0,2,49932,50000,20,50000,0,0,0,0,0.00,0.00,0.00,0.00
2014-09-06 23:00:00,2,49571,0,0.00,2,2,0,2,46974,50000,944,50000,0,0,0,0,0.00,0.00,0.00,0.00
2014-09-06 23:10:00,2,49670,0,0.00,2,2,0,2,47217,50000,824,50000,0,0,0,0,0.00,0.00,0.00,0.00
2014-09-06 23:20:00,2,49877,0,0.00,2,2,0,2,48769,50000,369,50000,0,0,0,0,0.00,0.00,0.00,0.00
2014-09-06 23:30:00,2,49732,0,0.00,2,2,0,2,48481,50000,479,50000,0,0,0,0,0.00,0.00,0.00,0.00
2014-09-06 23:40:00,2,39615,0,0.00,2,2,0,2,33239,50000,5708,37425,0,0,0,0,0.00,0.00,0.00,0.00
2014-09-06 23:50:00,2,47694,0,0.00,2,2,0,2,33391,50000,4891,49996,0,0,0,0,0.00,0.00,0.00,0.00
